This demonstration page uses our WeatherBlox Daily Observations layout. Learn more.

Left ArrowRight Arrow

Hourly Observations for December 13, 2020

Temp ( °F °C ) Dew Point ( °F °C ) Humidity (%) Winds ( mph kmh ) Pressure ( in mb ) Visibility ( mi km ) Precip ( " mm )
12:51 am 00:51 Clear 43 6.1 26 -3.3 51 51 W 13 20 30 1016 10 16.0934 0 0
1:51 am 01:51 Clear 42 5.6 24 -4.4 49 49 WNW 12 19 30.03 1017 10 16.0934 0 0
2:51 am 02:51 Clear 41 5 20 -6.7 43 43 WNW 17 28 30.03 1017 10 16.0934 0 0
3:51 am 03:51 Clear 38 3.3 17 -8.3 43 43 WNW 17 28 30.08 1019 10 16.0934 0 0
4:51 am 04:51 Clear 36 2.2 18 -7.8 48 48 NNW 7 11 30.12 1020 10 16.0934 0 0
5:51 am 05:51 Clear 35 1.7 16 -8.9 46 46 W 10 17 30.17 1022 10 16.0934 0 0
6:51 am 06:51 Clear 33 0.6 16 -8.9 49 49 WNW 3 6 30.22 1023 10 16.0934 0 0
7:51 am 07:51 Sunny 33 0.6 19 -7.2 56 56 NNW 7 11 30.24 1024 10 16.0934 0 0
8:51 am 08:51 Sunny 38 3.3 16 -8.9 41 41 Calm 30.31 1027 10 16.0934 0 0
9:51 am 09:51 Sunny 40 4.4 14 -10 35 35 Calm 30.33 1027 10 16.0934 0 0
10:51 am 10:51 Sunny 45 7.2 14 -10 29 29 SE 5 7 30.32 1027 10 16.0934 0 0
11:51 am 11:51 Sunny 48 8.9 13 -10.6 24 24 undefined N/A 30.29 1026 10 16.0934 0 0
12:51 pm 12:51 Sunny 50 10 11 -11.7 21 21 ESE 8 13 30.26 1025 10 16.0934 0 0
1:51 pm 13:51 Sunny 51 10.6 12 -11.1 21 21 S 9 15 30.24 1024 10 16.0934 0 0
2:51 pm 14:51 Sunny 53 11.7 13 -10.6 20 20 SSE 8 13 30.23 1024 10 16.0934 0 0
3:51 pm 15:51 Sunny 53 11.7 13 -10.6 20 20 S 14 22 30.23 1024 10 16.0934 0 0
4:51 pm 16:51 Sunny 52 11.1 13 -10.6 21 21 SE 8 13 30.25 1024 10 16.0934 0 0
5:51 pm 17:51 Clear 46 7.8 19 -7.2 34 34 E 6 9 30.27 1025 10 16.0934 0 0
6:51 pm 18:51 Clear 44 6.7 20 -6.7 38 38 E 7 11 30.27 1025 10 16.0934 0 0
7:51 pm 19:51 Clear 42 5.6 20 -6.7 41 41 SSE 9 15 30.27 1025 10 16.0934 0 0
8:51 pm 20:51 Clear 42 5.6 19 -7.2 40 40 SSE 9 15 30.26 1025 10 16.0934 0 0
9:51 pm 21:51 Clear 42 5.6 19 -7.2 40 40 ESE 7 11 30.25 1025 10 16.0934 0 0
10:51 pm 22:51 Clear 41 5 19 -7.2 41 41 SE 9 15 30.24 1024 10 16.0934 0 0
11:51 pm 23:51 Clear 41 5 19 -7.2 41 41 SE 9 15 30.22 1023 10 16.0934 0 0

Powered by AerisWeather